Location: Chavannes
(47.1090°N, 0.2226°W)
Time: 12:27:06
(UTC+00:00)

H-2A R/B - Pass Details

Date: 16 October 2021
Orbit: 732 x 837 km, 98.2° (Epoch: 03 December)

Event Time Altitude Azimuth Distance (km) Brightness Sun altitude
Rises 18:24:07 0° 178° (S) 3,304 5.3 -13.1°
Reaches altitude 10° 18:26:28 10° 183° (S) 2,392 4.6 -13.5°
Maximum altitude 18:31:41 55° 260° (W) 992 3.0 -14.4°
Drops below altitude 10° 18:37:01 10° 338° (NNW) 2,454 4.9 -15.3°
Sets 18:39:28 0° 343° (NNW) 3,398 5.6 -15.7°
